Location: *
(2.7500°S, 66.6833°W)
Time: 22:37:53
(UTC+00:00)

Cosmos 1666 - Pass Details

Date: 24 May 2024
Orbit: 439 x 454 km, 82.5° (Epoch: 13 June)

Event Time Altitude Azimuth Distance (km) Brightness Sun altitude
Rises 23:40:38 0° 341° (NNW) 2,413 6.7 -18.9°
Reaches altitude 10° 23:42:48 10° 331° (NNW) 1,546 5.8 -19.4°
Maximum altitude 23:45:50 32° 266° (W) 783 4.2 -20.1°
Drops below altitude 10° 23:48:54 10° 201° (SSW) 1,552 5.1 -20.8°
Enters shadow 23:49:09 - 199° (SSW) 1,649 5.2 -20.9°
